SHIYAN 1 (SY-1)

Last updated on Sat Apr 13 2024 01:02:24 GMT+0100 (British Summer Time)

1 28220U 04012A 24103.56707569 .00006809 00000+0 42042-3 0 9993 2 28220 97.9716 128.6040 0008237 248.4433 111.5917 15.10216747 90080
UTC large
Height (km)
Speed (km/s)
/
Latitude / Longitude
Inclination (degrees)
Orbital Period (minutes)
Azimuth
Elevation
Range (km)
Doppler Factor

Next 0 passes for location: London (51.5072 / 0.1276)

Sorry there are no passes over London.